Hourly Data Report for October 13, 2015

All times are specified in Local Standard Time (LST). Add 1 hour to adjust for Daylight Saving Time where and when it is observed.

CLYDE RIVER A
NUNAVUT

70°29'09.000" N
68°31'01.000" W
26.50 m
2400804
71090
YCY

Related Data

No related data is available for this station

Download Data

Hourly Data (October 2015)
Hourly Data Report for October 13, 2015
Temp Definition
°C
Dew Point Temp Definition
°C
Rel Hum Definition
%
Wind Dir Definition
10's deg

Wind Spd Definition
km/h
Visibility Definition
km
Stn Press Definition
kPa
Hmdx Definition


Wind Chill Definition


Weather Definition


TIME
00:00 Legend Double Dagger -1.2 -1.9 95 32 24 16.1 99.27   -7 LegendNANA
01:00 Legend Double Dagger -1.1 -1.9 94 32 22 16.1 99.27   -7 LegendNANA
02:00 Legend Double Dagger -1.2 -2.0 94 32 18 14.5 99.26   -6 LegendNANA
03:00 Legend Double Dagger -1.5 -2.2 95 32 22 16.1 99.25   -7 LegendNANA
04:00 Legend Double Dagger -1.2 -1.9 95 33 22 14.5 99.24   -7 LegendNANA
05:00 Legend Double Dagger -1.2 -1.8 96 32 17 4.0 99.23   -6 Snow
06:00 Legend Double Dagger -1.3 -1.7 97 32 17 2.4 99.22   -6 Snow
07:00 Legend Double Dagger -1.2 -1.6 97 32 17 2.8 99.19   -6 Snow
08:00 Legend Double Dagger -1.2 -1.6 97 34 17 3.6 99.17   -6 Snow
09:00 Legend Double Dagger -1.1 -1.5 97 34 13 6.4 99.17   -5 Snow
10:00 Legend Double Dagger -1.4 -2.0 96 36 18 2.0 99.16   -7 Snow
11:00 Legend Double Dagger -1.5 -2.1 96 35 22 8.1 99.16   -7 Snow
12:00 Legend Double Dagger -1.5 -2.1 96 35 15 3.6 99.16   -6 Snow
13:00 Legend Double Dagger -1.5 -2.1 96 34 21 4.0 99.14   -7 Snow
14:00 Legend Double Dagger -1.7 -2.3 96 2 18 2.0 99.14   -7 Snow
15:00 Legend Double Dagger -1.9 -2.3 97 2 13 4.0 99.13   -6 Snow
16:00 Legend Double Dagger -1.7 -2.1 97 1 17 2.0 99.12   -7 Snow
17:00 Legend Double Dagger -2.0 -2.4 97 35 15 2.4 99.12   -7 Snow
18:00 Legend Double Dagger -1.9 -2.3 97 36 13 6.4 99.10   -6 Snow
19:00 Legend Double Dagger -2.0 -2.6 96 35 13 8.1 99.08   -6 Snow
20:00 Legend Double Dagger -2.1 -2.5 97 1 11 2.0 99.06   -6 Snow
21:00 Legend Double Dagger -2.0 -2.4 97 34 15 8.1 99.02   -7 Snow
22:00 Legend Double Dagger -1.9 -2.3 97 33 13 8.1 98.97   -6 Snow
23:00 Legend Double Dagger -2.1 -2.4 98 32 9 2.0 98.94   -6 Snow

Notes on Data Quality.

Legend

  • E = Estimated
  • M = Missing
  • NA = Not Available
  • ‡ = Partner data that is not subject to review by the National Climate Archives
Date modified: